Regional Weather Roundup
Issued by NWS Newport/Morehead, NC

Current Version | Previous Version | Graphics & Text | Print | Product List | Glossary On
Versions: 1 2 3 4 5 6 7 8 9 10 11 12 13 14 15 16 17 18 19 20 21 22 23 24 25 26 27 28 29 30 31 32 33 34 35 36 37 38 39 40 41 42 43 44 45 46 47 48 49 50
000 ASUS42 KMHX 260925 RWRMHX WEATHER ROUNDUP FOR EASTERN NORTH CAROLINA NATIONAL WEATHER SERVICE NEWPORT/MOREHEAD CITY NC 500 AM EDT TUE MAY 26 2015 NOTE: "FAIR" INDICATES FEW OR NO CLOUDS BELOW 12,000 FEET WITH NO SIGNIFICANT WEATHER AND/OR OBSTRUCTIONS TO VISIBILITY NCZ015>017-031-032-045>047-102-103-261000- NORTH COAST CITY SKY/WX TMP DP RH WIND PRES REMARKS EDENTON CLEAR 66 62 87 S7 30.29S ELIZABETH CITY CLEAR 66 63 90 S7 30.29S KITTY HAWK SUNNY 69 62 78 S3 30.29S MANTEO CLEAR 70 63 78 SW8 30.30S $$ NCZ045>047-081-094-103-104-261000- CENTRAL COAST CITY SKY/WX TMP DP RH WIND PRES REMARKS FRISCO CLEAR 72 62 71 S8 30.30R SWANQUARTER N/A 72 N/A N/A S9G15 30.27S $$ NCZ095-097-098-100-101-261000- SOUTHERN COAST CITY SKY/WX TMP DP RH WIND PRES REMARKS BEAUFORT MOCLDY 72 64 76 S7 30.28S CEDAR ISLAND N/A 68 N/A N/A S2 30.33S JACKSONVILLE CLEAR 62 60 93 CALM 30.27S PINEY ISLAND SUNNY N/A N/A N/A CALM 30.29R WILMINGTON PTCLDY 64 62 93 E5 30.25F $$ NCZ011>013-027>030-043-044-078>080-089-090>093-098-261000- COASTAL PLAIN CITY SKY/WX TMP DP RH WIND PRES REMARKS AHOSKIE N/A 58 57 97 CALM 30.29R FOG CLINTON CLEAR 62 62 100 CALM 30.28S ELIZABETHTOWN CLEAR 63 63 100 CALM 30.26S GOLDSBORO NOT AVBL GREENVILLE PTCLDY 63 61 94 CALM 30.29S HAVELOCK PTCLDY 63 59 87 CALM 30.29S KENANSVILLE CLEAR 57 56 95 CALM 30.28S KINSTON CLEAR 61 60 97 CALM 30.29R FOG NEW BERN PTCLDY 62 59 90 CALM 30.29S RICHLANDS CLEAR 57 54 88 CALM 30.28R ROCKY MOUNT CLEAR 61 60 97 CALM 30.28R WASHINGTON N/A 64 61 92 CALM 30.29R WHITEVILLE CLEAR 63 61 95 CALM 30.24F $$ AMZ130-135-150-152-154-156-158-170-250-252-270-ANZ085-086-088-633-658-670-261000- MARINE OBSERVATIONS STATION/POSITION TIME TEMP WIND PRES WAVE SWELL AIR SEA DIR/SP/G HT/PER HT/PER (UTC) (F) (DEG/KT/KT) (MB) (FT/S) (FT/S) CHESAPEAKE LIGHT 0900 67 210/ 15/ 15 1026.0 64 E VA BEACH 0850 65 63 190/ 8/ 8 1025.5 1/ 6 2/ 6 DUCK 0900 71 61 210/ 8/ 11 1024.9 2 E DUCK 0811 63 N/A 1/ 9 OREGON INLET 0900 73 75 180/ 10/ 12 1025.9 13E OREGON INLT 0900 65 N/A 2/ 4 HATTERAS CG 0900 74 75 180/ 5/ 11 1025.4 DIAMOND BUOY 0850 75 77 170/ 14/ 17 1025.7 3/ 6 2/ 7 CAPE LOOKOUT 0900 74 180/ 12/ 13 1025.1 BEAUFORT LAB 0900 74 74 190/ 10/ 14 1024.4 27 SE WRIGHTSVLE 0900 72 76 170/ 12/ 16 N/A 5 SE WRIGHTSVLE 0808 75 76 180/ 14/ 17 1024.6 225 S CAPE HAT 0850 73 74 130/ 14/ 16 1025.9 4/ 7 3/ 7 41 SE CHARLESTON 0850 78 76 160/ 10/ 12 1022.9 4/ 6 3/ 6 $$

USA.gov is the U.S. government's official web portal to all federal, state and local government web resources and services.